GACFB EGPO-EGEI

Flight info

Callsign GACFB
Flight time N/A
Altitude 5000
Route 5810N00619W DCT 5719N00552W 5717N00544W DCT 5715N00549W
Aircraft C172/L-SDFG/C

Departure

Time 2026-05-05 17:07
Airport Stornoway Airport (EGPO)

Arrival

Time N/A
Airport Broadford Airstrip (EGEI)
Time Latitude Longitude Altitude Speed Heading
2026-05-05 17:00 58.21331 -6.32467 18 ft 0 kts 174°
2026-05-05 17:01 58.21323 -6.32465 18 ft 7 kts 170°
2026-05-05 17:01 58.21300 -6.32572 15 ft 19 kts 347°
2026-05-05 17:01 58.21431 -6.32447 18 ft 25 kts 51°
2026-05-05 17:01 58.21477 -6.32076 28 ft 35 kts 84°
2026-05-05 17:02 58.21503 -6.31955 30 ft 4 kts 38°
2026-05-05 17:02 58.21521 -6.31937 30 ft 0 kts 22°
2026-05-05 17:02 58.21558 -6.31912 29 ft 21 kts 18°
2026-05-05 17:02 58.21688 -6.32039 23 ft 24 kts 316°
2026-05-05 17:03 58.21817 -6.32264 18 ft 26 kts 320°
2026-05-05 17:03 58.21955 -6.32498 15 ft 26 kts 318°
2026-05-05 17:03 58.22102 -6.32759 14 ft 27 kts 317°
2026-05-05 17:03 58.22174 -6.33014 14 ft 13 kts 284°
2026-05-05 17:04 58.22176 -6.33026 14 ft 0 kts 284°
2026-05-05 17:05 58.22177 -6.33035 14 ft 0 kts 284°
2026-05-05 17:06 58.22247 -6.33209 14 ft 20 kts 358°
2026-05-05 17:06 58.22279 -6.33256 14 ft 0 kts 182°
2026-05-05 17:06 58.22135 -6.33219 14 ft 54 kts 175°
2026-05-05 17:07 58.21650 -6.33174 113 ft 85 kts 184°
2026-05-05 17:07 58.21016 -6.33350 328 ft 94 kts 189°
2026-05-05 17:07 58.20368 -6.33568 580 ft 96 kts 190°
2026-05-05 17:07 58.19700 -6.33797 833 ft 98 kts 190°